Weather History for Monroe, WI

Change the Weather History Date:

Sunday, June 16, 2013

  Actual Average Record
Temperature  
Mean Temperature 74 °F -  
Max Temperature 85 °F 0 °F 87 °F (2006)
Min Temperature 65 °F - 24 °F (1998)
Cooling Degree Days 10    
Growing Degree Days 24 (Base 50)    
Moisture  
Dew Point 56 °F    
Average Humidity 58    
Maximum Humidity 100    
Minimum Humidity 24    
Precipitation  
Precipitation 0.00 in - - ()
Sea Level Pressure  
Sea Level Pressure 29.92 in    
Wind  
Wind Speed 12 mph (West)    
Max Wind Speed 25 mph    
Max Gust Speed 32 mph    
Visibility 10 miles    
Events Thunderstorm    
Averages and records for this station are not official NWS values.
T = Trace of Precipitation, MM = Missing Value Source: NWS Daily Summary

Daily Weather History Graph

Daily Weather History Graph

Search for Another Location

Airport:

Trip Planner

Search our weather history database for the weather conditions in past years. The results will help you decide how hot, cold, wet, or windy it might be!

Date:

Astronomy

Jun. 16, 2013 Rise Set
Actual Time 5:20 AM CDT 8:38 PM CDT
Civil Twilight 4:45 AM CDT 9:13 PM CDT
Nautical Twilight 3:59 AM CDT 9:58 PM CDT
Astronomical Twilight 3:04 AM CDT 10:54 PM CDT
Moon 1:05 PM CDT (6/16) 12:34 AM CDT (6/16)
Length of Visible Light 16h 28m
Length of Day
15h 18m
Waxing Crescent, 50% of the Moon is Illuminated
Jun 16
Waxing Crescent
Jun 16
First Quarter
Jun 23
Full
Jun 29
Last Quarter
Jul 8
New

Hourly Weather History & Observations

Time (CDT) Temp. Dew Point Humidity Pressure Visibility Wind Dir Wind Speed Gust Speed Precip Events Conditions
12:15 AM 71.2 °F 69.4 °F 94% 29.91 in 10.0 mi SW 23.0 mph 32.2 mph N/A   Overcast
12:35 AM 70.2 °F 68.5 °F 95% 29.90 in 10.0 mi WSW 25.3 mph 28.8 mph N/A   Mostly Cloudy
12:55 AM 70.3 °F 68.2 °F 93% 29.91 in 10.0 mi WSW 20.7 mph 32.2 mph N/A   Mostly Cloudy
1:15 AM 69.8 °F 68.2 °F 95% 29.90 in 10.0 mi WSW 17.3 mph 26.5 mph N/A   Mostly Cloudy
1:35 AM 69.4 °F 68.0 °F 95% 29.90 in 10.0 mi SW 16.1 mph 23.0 mph N/A   Scattered Clouds
1:55 AM 69.3 °F 68.2 °F 96% 29.89 in 10.0 mi WSW 16.1 mph 20.7 mph N/A Thunderstorm Mostly Cloudy
2:15 AM 69.1 °F 68.0 °F 96% 29.89 in 10.0 mi WSW 16.1 mph - N/A   Scattered Clouds
2:35 AM 68.9 °F 68.0 °F 97% 29.88 in 10.0 mi WSW 15.0 mph 19.6 mph N/A   Mostly Cloudy
2:55 AM 68.9 °F 67.6 °F 96% 29.88 in 10.0 mi WSW 16.1 mph - N/A   Scattered Clouds
3:15 AM 68.4 °F 67.6 °F 98% 29.89 in 10.0 mi West 12.7 mph - N/A   Scattered Clouds
3:35 AM 67.8 °F 67.6 °F 99% 29.88 in 10.0 mi West 11.5 mph - N/A   Clear
3:55 AM 67.5 °F 67.5 °F 100% 29.88 in 10.0 mi West 11.5 mph - N/A   Clear
4:15 AM 67.3 °F 67.3 °F 100% 29.88 in 10.0 mi West 10.4 mph - N/A   Clear
4:35 AM 67.1 °F 67.1 °F 100% 29.90 in 10.0 mi West 9.2 mph 16.1 mph N/A   Clear
4:55 AM 66.4 °F 66.4 °F 100% 29.90 in 10.0 mi West 10.4 mph - N/A   Clear
5:15 AM 65.8 °F 65.8 °F 100% 29.90 in 10.0 mi West 10.4 mph - N/A   Clear
5:35 AM 66.2 °F 66.2 °F 100% 29.90 in 10.0 mi West 10.4 mph - N/A   Clear
5:55 AM 65.8 °F 65.8 °F 100% 29.91 in 10.0 mi West 8.1 mph - N/A   Clear
6:15 AM 66.2 °F 66.2 °F 100% 29.91 in 10.0 mi West 8.1 mph - N/A   Clear
6:35 AM 66.6 °F 66.6 °F 100% 29.92 in 10.0 mi West 5.8 mph - N/A   Clear
6:55 AM 67.1 °F 67.1 °F 100% 29.92 in 10.0 mi West 5.8 mph - N/A   Scattered Clouds
7:15 AM 68.0 °F 68.0 °F 100% 29.92 in 10.0 mi West 3.5 mph - N/A   Scattered Clouds
7:35 AM 69.6 °F 69.1 °F 98% 29.92 in 10.0 mi West 5.8 mph - N/A   Scattered Clouds
7:55 AM 70.2 °F 69.3 °F 97% 29.93 in 10.0 mi West 5.8 mph - N/A   Clear
8:15 AM 71.8 °F 69.6 °F 93% 29.93 in 10.0 mi West 4.6 mph - N/A   Clear
8:35 AM 72.9 °F 69.6 °F 90% 29.93 in 10.0 mi Calm Calm - N/A   Clear
8:55 AM 74.1 °F 65.1 °F 73% 29.93 in 10.0 mi WNW 4.6 mph - N/A   Clear
9:15 AM 75.0 °F 63.7 °F 68% 29.93 in 10.0 mi West 5.8 mph - N/A   Clear
9:35 AM 76.3 °F 61.5 °F 60% 29.93 in 10.0 mi WNW 5.8 mph - N/A   Clear
9:55 AM 77.4 °F 59.7 °F 54% 29.93 in 10.0 mi North 5.8 mph - N/A   Clear
10:15 AM 78.1 °F 57.6 °F 49% 29.92 in 10.0 mi NNW 5.8 mph - N/A   Clear
10:35 AM 79.3 °F 54.5 °F 42% 29.92 in 10.0 mi Calm Calm - N/A   Clear
10:55 AM 79.9 °F 52.9 °F 39% 29.92 in 10.0 mi NNW 3.5 mph - N/A   Clear
11:15 AM 80.6 °F 50.2 °F 35% 29.93 in 10.0 mi Calm Calm - N/A   Clear
11:35 AM 81.5 °F 47.3 °F 30% 29.93 in 10.0 mi NNW 3.5 mph - N/A   Clear
11:55 AM 82.0 °F 49.5 °F 32% 29.93 in 10.0 mi WNW 3.5 mph - N/A   Clear
12:15 PM 82.2 °F 50.9 °F 34% 29.93 in 10.0 mi West 6.9 mph - N/A   Clear
12:35 PM 82.6 °F 48.9 °F 31% 29.93 in 10.0 mi SW 3.5 mph - N/A   Clear
12:55 PM 82.9 °F 48.4 °F 30% 29.93 in 10.0 mi West 8.1 mph - N/A   Clear
1:15 PM 83.3 °F 48.4 °F 30% 29.93 in 10.0 mi WNW 5.8 mph - N/A   Clear
1:35 PM 83.5 °F 48.6 °F 30% 29.93 in 10.0 mi WSW 8.1 mph 16.1 mph N/A   Clear
1:55 PM 84.0 °F 48.2 °F 29% 29.93 in 10.0 mi WSW 4.6 mph - N/A   Scattered Clouds
2:15 PM 84.7 °F 47.8 °F 28% 29.92 in 10.0 mi NW 8.1 mph - N/A   Scattered Clouds
2:35 PM 84.6 °F 45.9 °F 26% 29.93 in 10.0 mi WSW 12.7 mph 18.4 mph N/A   Scattered Clouds
2:55 PM 84.2 °F 43.9 °F 24% 29.93 in 10.0 mi WNW 6.9 mph - N/A   Scattered Clouds
3:15 PM 84.7 °F 44.2 °F 24% 29.93 in 10.0 mi West 9.2 mph 16.1 mph N/A   Clear
3:35 PM 84.9 °F 45.7 °F 25% 29.92 in 10.0 mi West 9.2 mph - N/A   Clear
3:55 PM 84.6 °F 44.1 °F 24% 29.92 in 10.0 mi WNW 9.2 mph 20.7 mph N/A   Clear
4:15 PM 84.6 °F 43.9 °F 24% 29.93 in 10.0 mi West 10.4 mph - N/A   Clear
4:35 PM 84.4 °F 45.1 °F 25% 29.92 in 10.0 mi WNW 9.2 mph - N/A   Clear
4:55 PM 84.9 °F 44.2 °F 24% 29.92 in 10.0 mi WNW 15.0 mph - N/A   Clear
5:15 PM 84.6 °F 44.6 °F 25% 29.92 in 10.0 mi WSW 13.8 mph - N/A   Clear
5:35 PM 84.7 °F 44.8 °F 25% 29.91 in 10.0 mi West 11.5 mph 16.1 mph N/A   Clear
5:55 PM 84.2 °F 44.1 °F 24% 29.91 in 10.0 mi West 11.5 mph - N/A   Clear
6:15 PM 83.8 °F 46.2 °F 27% 29.90 in 10.0 mi West 8.1 mph - N/A   Clear
6:35 PM 83.7 °F 46.6 °F 27% 29.90 in 10.0 mi West 10.4 mph - N/A   Clear
6:55 PM 82.8 °F 46.0 °F 28% 29.90 in 10.0 mi WNW 9.2 mph - N/A   Clear
7:15 PM 82.2 °F 47.1 °F 29% 29.91 in 10.0 mi West 6.9 mph - N/A   Clear
7:35 PM 81.1 °F 47.1 °F 30% 29.90 in 10.0 mi West 6.9 mph - N/A   Clear
7:55 PM 79.3 °F 47.8 °F 33% 29.91 in 10.0 mi West 6.9 mph - N/A   Clear
8:15 PM 78.8 °F 47.5 °F 33% 29.91 in 10.0 mi West 4.6 mph - N/A   Clear
8:35 PM 78.1 °F 46.9 °F 33% 29.90 in 10.0 mi WNW 5.8 mph - N/A   Clear
8:55 PM 77.4 °F 47.1 °F 34% 29.91 in 10.0 mi WNW 6.9 mph - N/A   Clear
9:15 PM 77.0 °F 47.7 °F 35% 29.92 in 10.0 mi WNW 8.1 mph - N/A   Clear
9:35 PM 76.1 °F 48.2 °F 37% 29.93 in 10.0 mi WNW 8.1 mph - N/A   Clear
9:55 PM 75.6 °F 49.1 °F 39% 29.94 in 10.0 mi West 6.9 mph - N/A   Clear
10:15 PM 75.4 °F 48.4 °F 38% 29.95 in 10.0 mi WNW 9.2 mph - N/A   Clear
10:35 PM 73.6 °F 50.0 °F 43% 29.94 in 10.0 mi West 6.9 mph - N/A   Clear
10:55 PM 73.6 °F 49.6 °F 43% 29.94 in 10.0 mi West 5.8 mph - N/A   Clear
11:15 PM 72.5 °F 50.2 °F 45% 29.93 in 10.0 mi West 6.9 mph - N/A   Clear
11:35 PM 73.6 °F 49.3 °F 42% 29.94 in 10.0 mi WSW 8.1 mph - N/A   Clear
11:55 PM 69.4 °F 52.0 °F 54% 29.94 in 10.0 mi SW 8.1 mph - N/A   Clear